Weather History for PASX - January, 2013

Change the Weather History Date:

Saturday, January 19, 2013

  Actual Average Record
Temperature  
Mean Temperature 19 °F -  
Max Temperature 26 °F 22 °F 46 °F (1961)
Min Temperature 12 °F 7 °F -42 °F (1951)
Degree Days  
Heating Degree Days 46    
Moisture  
Dew Point 15 °F    
Average Humidity 82    
Maximum Humidity 92    
Minimum Humidity 74    
Precipitation  
Precipitation 0.00 in - - ()
Sea Level Pressure  
Sea Level Pressure 30.07 in    
Wind  
Wind Speed 6 mph (NE)    
Max Wind Speed 13 mph    
Max Gust Speed 22 mph    
Visibility 10 miles    
Events      
Averages and records for this station are not official NWS values.
T = Trace of Precipitation, MM = Missing Value Source: NWS Daily Summary

Daily Weather History Graph

Daily Weather History Graph

Search for Another Location

Airport or City:

Trip Planner

Search our weather history database for the weather conditions in past years. The results will help you decide how hot, cold, wet, or windy it might be!

Date:

Astronomy

Jan. 19, 2013 Rise Set
Actual Time 9:47 AM AKST 4:43 PM AKST
Civil Twilight 8:55 AM AKST 5:35 PM AKST
Nautical Twilight 8:01 AM AKST 6:29 PM AKST
Astronomical Twilight 7:10 AM AKST 7:20 PM AKST
Moon 11:33 AM AKST (1/19) 3:08 AM AKST (1/19)
Length of Visible Light 8h 40m
Length of Day
6h 55m
First Quarter, 58% of the Moon is Illuminated
Jan 19
First Quarter
Jan 26
Full
Feb 3
Last Quarter
Feb 9
New
Feb 17
First Quarter

Hourly Weather History & Observations

Time (AKST) Temp. Windchill Dew Point Humidity Pressure Visibility Wind Dir Wind Speed Gust Speed Precip Events Conditions
12:16 AM 14.0 °F 6.5 °F 8.6 °F 79% 30.21 in 10.0 mi ENE 4.6 mph - N/A   Mostly Cloudy
12:36 AM 12.2 °F 6.1 °F 8.6 °F 85% 30.21 in 10.0 mi ENE 3.5 mph - N/A   Scattered Clouds
12:56 AM 12.2 °F 6.1 °F 8.6 °F 85% 30.21 in 10.0 mi ENE 3.5 mph - N/A   Partly Cloudy
1:16 AM 12.2 °F - 8.6 °F 85% 30.21 in 10.0 mi Calm Calm - N/A   Mostly Cloudy
1:36 AM 12.2 °F - 8.6 °F 85% 30.21 in 10.0 mi Calm Calm - N/A   Overcast
1:56 AM 12.2 °F 6.1 °F 8.6 °F 85% 30.20 in 10.0 mi East 3.5 mph - N/A   Overcast
2:16 AM 12.2 °F 6.1 °F 8.6 °F 85% 30.20 in 10.0 mi East 3.5 mph - N/A   Overcast
2:36 AM 14.0 °F 8.2 °F 8.6 °F 79% 30.20 in 10.0 mi ENE 3.5 mph - N/A   Overcast
2:56 AM 14.0 °F 8.2 °F 8.6 °F 79% 30.21 in 10.0 mi ENE 3.5 mph - N/A   Overcast
3:16 AM 14.0 °F 8.2 °F 8.6 °F 79% 30.20 in 10.0 mi NE 3.5 mph - N/A   Overcast
3:36 AM 12.2 °F - 8.6 °F 85% 30.20 in 10.0 mi Calm Calm - N/A   Overcast
3:56 AM 12.2 °F - 8.6 °F 85% 30.20 in 10.0 mi Calm Calm - N/A   Overcast
4:16 AM 12.2 °F - 8.6 °F 85% 30.19 in 10.0 mi Calm Calm - N/A   Overcast
4:36 AM 12.2 °F - 10.4 °F 92% 30.19 in 10.0 mi Calm Calm - N/A   Overcast
4:56 AM 12.2 °F - 8.6 °F 85% 30.18 in 10.0 mi Calm Calm - N/A   Overcast
5:16 AM 12.2 °F - 8.6 °F 85% 30.18 in 10.0 mi Calm Calm - N/A   Overcast
5:36 AM 12.2 °F - 8.6 °F 85% 30.18 in 10.0 mi Calm Calm - N/A   Overcast
5:56 AM 12.2 °F - 10.4 °F 92% 30.17 in 10.0 mi Calm Calm - N/A   Overcast
6:16 AM 14.0 °F 5.1 °F 10.4 °F 86% 30.17 in 10.0 mi East 5.8 mph - N/A   Overcast
6:36 AM 15.8 °F 7.2 °F 10.4 °F 79% 30.16 in 10.0 mi ENE 5.8 mph - N/A   Overcast
6:56 AM 17.6 °F 8.2 °F 12.2 °F 79% 30.16 in 10.0 mi ENE 6.9 mph - N/A   Overcast
7:16 AM 17.6 °F 6.4 °F 12.2 °F 79% 30.16 in 10.0 mi ENE 9.2 mph - N/A   Overcast
7:36 AM 17.6 °F 7.3 °F 12.2 °F 79% 30.15 in 7.0 mi ENE 8.1 mph - N/A   Overcast
7:56 AM 17.6 °F 6.4 °F 12.2 °F 79% 30.15 in 2.0 mi NE 9.2 mph - N/A   Overcast
8:16 AM 17.6 °F 7.3 °F 14.0 °F 86% 30.15 in 2.0 mi NE 8.1 mph - N/A   Overcast
8:36 AM 17.6 °F 5.7 °F 14.0 °F 86% 30.14 in 5.0 mi ENE 10.4 mph - N/A   Overcast
8:56 AM 17.6 °F 5.7 °F 14.0 °F 86% 30.14 in 10.0 mi NE 10.4 mph - N/A   Overcast
9:16 AM 19.4 °F 7.9 °F 12.2 °F 74% 30.14 in 10.0 mi ENE 10.4 mph - N/A   Overcast
9:36 AM 19.4 °F 9.5 °F 14.0 °F 80% 30.14 in 10.0 mi ENE 8.1 mph 17.3 mph N/A   Overcast
9:56 AM 19.4 °F 7.2 °F 14.0 °F 80% 30.14 in 10.0 mi NE 11.5 mph 16.1 mph N/A   Overcast
10:16 AM 19.4 °F 10.4 °F 14.0 °F 80% 30.13 in 10.0 mi ENE 6.9 mph - N/A   Overcast
10:36 AM 19.4 °F 9.5 °F 15.8 °F 86% 30.13 in 10.0 mi NE 8.1 mph - N/A   Overcast
10:56 AM 19.4 °F 8.6 °F 15.8 °F 86% 30.13 in 10.0 mi NE 9.2 mph - N/A   Overcast
11:16 AM 19.4 °F 8.6 °F 15.8 °F 86% 30.13 in 10.0 mi NE 9.2 mph - N/A   Overcast
11:36 AM 19.4 °F 7.9 °F 15.8 °F 86% 30.13 in 10.0 mi ENE 10.4 mph - N/A   Overcast
11:56 AM 21.2 °F 10.9 °F 17.6 °F 86% 30.12 in 10.0 mi NE 9.2 mph - N/A   Overcast
12:16 PM 21.2 °F 10.9 °F 17.6 °F 86% 30.12 in 10.0 mi NE 9.2 mph 16.1 mph N/A   Overcast
12:36 PM 21.2 °F 10.9 °F 17.6 °F 86% 30.12 in 10.0 mi NE 9.2 mph - N/A   Overcast
12:56 PM 21.2 °F 10.1 °F 17.6 °F 86% 30.10 in 10.0 mi NE 10.4 mph - N/A   Overcast
1:16 PM 21.2 °F 11.7 °F 17.6 °F 86% 30.09 in 10.0 mi NE 8.1 mph - N/A   Overcast
1:36 PM 21.2 °F 9.5 °F 17.6 °F 86% 30.09 in 10.0 mi NE 11.5 mph 16.1 mph N/A   Overcast
1:56 PM 21.2 °F 13.6 °F 17.6 °F 86% 30.08 in 10.0 mi NE 5.8 mph - N/A   Overcast
2:16 PM 23.0 °F 11.1 °F 17.6 °F 80% 30.07 in 10.0 mi NE 12.7 mph 18.4 mph N/A   Overcast
2:36 PM 23.0 °F 13.1 °F 17.6 °F 80% 30.05 in 10.0 mi ENE 9.2 mph 19.6 mph N/A   Overcast
2:56 PM 23.0 °F 13.1 °F 19.4 °F 86% 30.04 in 10.0 mi NE 9.2 mph 19.6 mph N/A   Overcast
3:16 PM 23.0 °F 13.1 °F 17.6 °F 80% 30.03 in 10.0 mi ENE 9.2 mph 16.1 mph N/A   Overcast
3:36 PM 23.0 °F 13.1 °F 19.4 °F 86% 30.02 in 8.0 mi NE 9.2 mph - N/A   Overcast
3:56 PM 23.0 °F 13.1 °F 19.4 °F 86% 30.00 in 2.5 mi NE 9.2 mph - N/A   Overcast
4:16 PM 23.0 °F 13.1 °F 19.4 °F 86% 29.99 in 5.0 mi NE 9.2 mph - N/A   Mostly Cloudy
4:36 PM 23.0 °F 11.7 °F 19.4 °F 86% 29.98 in 10.0 mi NE 11.5 mph 19.6 mph N/A   Overcast
4:56 PM 23.0 °F 13.1 °F 19.4 °F 86% 29.97 in 10.0 mi NE 9.2 mph - N/A   Overcast
5:16 PM 24.8 °F 14.6 °F 19.4 °F 80% 29.96 in 10.0 mi ENE 10.4 mph - N/A   Mostly Cloudy
5:36 PM 24.8 °F 16.1 °F 19.4 °F 80% 29.96 in 10.0 mi NE 8.1 mph - N/A   Partly Cloudy
5:56 PM 24.8 °F 14.6 °F 19.4 °F 80% 29.95 in 10.0 mi ENE 10.4 mph - N/A   Mostly Cloudy
6:16 PM 24.8 °F 16.1 °F 19.4 °F 80% 29.93 in 10.0 mi ENE 8.1 mph - N/A   Overcast
6:36 PM 24.8 °F 15.3 °F 19.4 °F 80% 29.93 in 10.0 mi NE 9.2 mph 16.1 mph N/A   Overcast
6:56 PM 24.8 °F 14.6 °F 19.4 °F 80% 29.92 in 10.0 mi NE 10.4 mph 17.3 mph N/A   Overcast
7:16 PM 24.8 °F 16.1 °F 19.4 °F 80% 29.92 in 10.0 mi NE 8.1 mph 17.3 mph N/A   Overcast
7:36 PM 24.8 °F 14.6 °F 19.4 °F 80% 29.91 in 10.0 mi ENE 10.4 mph 16.1 mph N/A   Overcast
7:56 PM 24.8 °F 15.3 °F 19.4 °F 80% 29.92 in 10.0 mi NE 9.2 mph 18.4 mph N/A   Overcast
8:16 PM 24.8 °F 13.4 °F 19.4 °F 80% 29.92 in 10.0 mi ENE 12.7 mph 19.6 mph N/A   Mostly Cloudy
8:36 PM 24.8 °F 13.4 °F 19.4 °F 80% 29.90 in 10.0 mi NE 12.7 mph 17.3 mph N/A   Mostly Cloudy
9:16 PM 24.8 °F 13.4 °F 19.4 °F 80% 29.90 in 10.0 mi NE 12.7 mph 17.3 mph N/A   Overcast
9:36 PM 24.8 °F 15.3 °F 19.4 °F 80% 29.90 in 10.0 mi NE 9.2 mph - N/A   Overcast
9:56 PM 24.8 °F 13.4 °F 19.4 °F 80% 29.90 in 10.0 mi NE 12.7 mph 17.3 mph N/A   Overcast
10:16 PM 24.8 °F 14.6 °F 19.4 °F 80% 29.89 in 10.0 mi ENE 10.4 mph 19.6 mph N/A   Overcast
10:36 PM 26.6 °F 17.5 °F 19.4 °F 74% 29.89 in 10.0 mi NE 9.2 mph 19.6 mph N/A   Overcast
10:56 PM 26.6 °F 16.8 °F 19.4 °F 74% 29.89 in 10.0 mi ENE 10.4 mph 21.9 mph N/A   Overcast
11:16 PM 26.6 °F 16.2 °F 19.4 °F 74% 29.88 in 10.0 mi NE 11.5 mph 18.4 mph N/A   Overcast
11:36 PM 26.6 °F 19.1 °F 19.4 °F 74% 29.88 in 10.0 mi NE 6.9 mph 16.1 mph N/A   Overcast
11:56 PM 26.6 °F 16.8 °F 21.2 °F 80% 29.88 in 10.0 mi NE 10.4 mph 18.4 mph N/A   Mostly Cloudy